Uccle, Belgium

7:17 PM CEST on September 29, 2016 (GMT +0200)
Uccle

Weather History for 06447 - February, 2014

Change the Weather History Date:

Sunday, February 16, 2014

  Actual Average Record
Temperature  
Mean Temperature 44 °F -  
Max Temperature 49 °F - - ()
Min Temperature 40 °F - - ()
Degree Days  
Heating Degree Days 20    
Moisture  
Dew Point 37 °F    
Average Humidity 70    
Maximum Humidity 83    
Minimum Humidity 55    
Precipitation  
Precipitation 0.00 in - - ()
Sea Level Pressure  
Sea Level Pressure 29.79 in    
Wind  
Wind Speed 12 mph ()    
Max Wind Speed 20 mph    
Max Gust Speed -    
Visibility 10.0 miles    
Events      
T = Trace of Precipitation, MM = Missing Value Source: Averaged Metar Reports

Daily Weather History Graph

Daily Weather History Graph

Search for Another Location

Airport or City:

Trip Planner

Search our weather history database for the weather conditions in past years. The results will help you decide how hot, cold, wet, or windy it might be!

Date:

Astronomy

Feb. 16, 2014 Rise Set
Actual Time 7:53 AM CET 6:00 PM CET
Civil Twilight 7:19 AM CET 6:34 PM CET
Nautical Twilight 6:40 AM CET 7:13 PM CET
Astronomical Twilight 6:03 AM CET 7:51 PM CET
Moon 7:58 PM CET (2/16) 8:01 AM CET (2/16)
Length of Visible Light 11h 15m
Length of Day
10h 07m
Full, 98% of the Moon is Illuminated
Feb 16
Full
Feb 22
Last Quarter
Mar 1
New
Mar 8
First Quarter
Mar 16
Full

Hourly Weather History & Observations

Time (CET) Temp. Dew Point Humidity Pressure Visibility Wind Dir Wind Speed Gust Speed Precip Events Conditions
12:00 AM 46 °F 36 °F 59% 29.63 in - SW 17.9 mph - -  
1:00 AM 45 °F 37 °F 64% 29.65 in - SW 20.1 mph - -  
2:00 AM 45 °F 37 °F 66% 29.67 in - WSW 17.9 mph - -  
3:00 AM 43 °F 38 °F 76% 29.69 in - SW 15.7 mph - -  
4:00 AM 43 °F 38 °F 75% 29.70 in - WSW 13.4 mph - -  
5:00 AM 43 °F 38 °F 76% 29.71 in - SW 15.7 mph - -  
6:00 AM 42 °F 37 °F 78% 29.73 in - WSW 11.2 mph - -  
7:00 AM 42 °F 38 °F 79% 29.75 in - WSW 11.2 mph - -  
8:00 AM 42 °F 37 °F 76% 29.77 in 12 mi SW 13.4 mph - -   Scattered Clouds
9:00 AM 42 °F 38 °F 82% 29.80 in 12 mi SW 13.4 mph - -   Scattered Clouds
10:00 AM 43 °F 38 °F 77% 29.82 in - WSW 13.4 mph - -  
11:00 AM 44 °F 39 °F 76% 29.83 in 12 mi WSW 13.4 mph - -   Scattered Clouds
12:00 PM 46 °F 39 °F 67% 29.85 in 12 mi WSW 13.4 mph - -   Partly Cloudy
1:00 PM 47 °F 37 °F 60% 29.85 in - WSW 13.4 mph - -  
2:00 PM 47 °F 38 °F 60% 29.85 in 6 mi WSW 8.9 mph - -   Partly Cloudy
3:00 PM 49 °F 38 °F 56% 29.85 in 6 mi WSW 8.9 mph - -   Partly Cloudy
4:00 PM 48 °F 37 °F 55% 29.85 in 12 mi WSW 8.9 mph - -   Partly Cloudy
5:00 PM 47 °F 39 °F 65% 29.84 in 12 mi SW 11.2 mph - -   Partly Cloudy
6:00 PM 46 °F 38 °F 65% 29.85 in 6 mi WSW 4.5 mph - -   Scattered Clouds
7:00 PM 43 °F 36 °F 70% 29.86 in - SSW 4.5 mph - -  
8:00 PM 40 °F 35 °F 78% 29.86 in - South 4.5 mph - -  
9:00 PM 40 °F 37 °F 83% 29.86 in - SSE 6.7 mph - -  
10:00 PM 42 °F 36 °F 72% 29.86 in - SSW 6.7 mph - -  
11:00 PM 41 °F 35 °F 72% 29.87 in - South 6.7 mph - -